Flag for Belarus Weather past 2 weeks in Barysaw, Belarus

Now
54 °F

Partly sunny.


Feels Like: 50 °F
Forecast: 30 / 41 °F
Wind: 10 mph from Northwest

Location: Minsk

Current Time: Oct 21, 2014 at 12:22:52 PM

Latest Report: Oct 21, 2014 at 12:00 PM


Visibility: N/A

Pressure: 29.56 "Hg

Humidity: 88%

Dew point: 50 °F

Location of BarysawLocation

Historic Weather in Barysaw — Graph

°F

Barysaw temperature yesterday

Maximum temperature yesterday: 61 °F (at 2:00 PM)
Minimum temperature yesterday: 45 °F (at 12:00 AM)
Average temperature yesterday: 52 °F

Past Weeks' High & Low Weather Summary

 TemperatureHumidityPressure
High68 °F (Oct 10, 3:00 PM)100% (Oct 11, 7:00 AM)30.54 "Hg (Oct 11, 7:00 AM)
Low21 °F (Oct 19, 2:30 AM)40% (Oct 14, 3:00 PM)29.50 "Hg (Oct 20, 10:00 PM)
Average49 °F80%30.00 "Hg
* Reported Oct 6 11:00 AM — Oct 21 11:00 AM, Barysaw, Weather by CustomWeather, © 2014

Note: Actual official high and low records may vary slightly from our data, if they occured in-between our weather recording intervals... More about our weather records

Advertising

Barysaw weather history for previous 24 hours

 ConditionsComfort  
Time TempWeatherWind HumidityBarometerVisibility
11:00 AM
Oct 21
52 °FPartly sunny.6 mph94%29.56 "HgN/A
10:30 AM52 °FPartly sunny.6 mph94%29.56 "HgN/A
10:00 AM50 °FPartly sunny.8 mph100%29.56 "HgN/A
9:30 AM50 °FSprinkles. Partly sunny.8 mph100%29.56 "HgN/A
9:00 AM50 °FSprinkles. Partly sunny.8 mph94%29.53 "HgN/A
8:46 AM50 °FPassing clouds.10 mph94%29.53 "HgN/A
8:30 AM50 °FPassing clouds.10 mph94%29.53 "HgN/A
8:00 AM50 °FPassing clouds.8 mph94%29.50 "HgN/A
7:30 AM50 °FPassing clouds.10 mph94%29.50 "HgN/A
7:00 AM52 °FPassing clouds.8 mph88%29.50 "HgN/A
6:00 AM50 °FPassing clouds.8 mph94%29.50 "HgN/A
5:30 AM50 °FPassing clouds.6 mph94%29.50 "HgN/A
5:00 AM52 °FPassing clouds.8 mph88%29.50 "HgN/A
4:30 AM50 °FPassing clouds.8 mph94%29.50 "HgN/A
4:00 AM50 °FPassing clouds.8 mph94%29.50 "HgN/A
3:30 AM50 °FPassing clouds.8 mph94%29.50 "HgN/A
3:00 AM50 °FPassing clouds.8 mph94%29.50 "HgN/A
2:30 AM50 °FLight rain. Passing clouds.8 mph94%29.50 "HgN/A
2:00 AM50 °FPassing clouds.8 mph94%29.50 "HgN/A
1:30 AM50 °FPassing clouds.8 mph94%29.50 "HgN/A
1:00 AM50 °FPassing clouds.10 mph94%29.50 "HgN/A
12:30 AM50 °FPassing clouds.8 mph94%29.50 "HgN/A
12:00 AM50 °FPassing clouds.8 mph100%29.50 "HgN/A
11:30 PM
Oct 20
52 °FSprinkles. Passing clouds.8 mph94%29.53 "HgN/A
11:00 PM52 °FPassing clouds.6 mph94%29.53 "HgN/A
10:30 PM52 °FSprinkles. Passing clouds.6 mph94%29.53 "HgN/A
10:00 PM52 °FSprinkles. Passing clouds.6 mph94%29.50 "HgN/A
9:30 PM52 °FSprinkles. Passing clouds.8 mph94%29.53 "HgN/A
9:02 PM52 °FSprinkles. Passing clouds.8 mph100%29.53 "Hg4 mi
8:30 PM54 °FPassing clouds.6 mph94%29.53 "HgN/A
8:01 PM54 °FSprinkles. Passing clouds.6 mph94%29.53 "Hg2 mi
7:30 PM54 °FPassing clouds.6 mph94%29.53 "HgN/A
7:00 PM54 °FSprinkles. Partly sunny.6 mph94%29.53 "HgN/A
6:30 PM54 °FPartly sunny.6 mph94%29.53 "HgN/A
6:03 PM54 °FSprinkles. Partly sunny.6 mph94%29.53 "Hg4 mi
5:30 PM55 °FPartly sunny.8 mph77%29.53 "HgN/A
5:00 PM57 °FPartly sunny.13 mph72%29.53 "HgN/A
4:30 PM57 °FPartly sunny.10 mph72%29.53 "HgN/A
4:00 PM57 °FPartly sunny.10 mph72%29.53 "HgN/A
3:30 PM59 °FPartly sunny.10 mph68%29.53 "HgN/A
3:00 PM59 °FPartly sunny.10 mph68%29.53 "HgN/A
2:30 PM59 °FPartly sunny.15 mph68%29.53 "HgN/A
2:00 PM61 °FPartly sunny.8 mph72%29.53 "HgN/A
1:30 PM59 °FPartly sunny.10 mph77%29.53 "HgN/A
1:00 PM57 °FPartly sunny.8 mph94%29.53 "HgN/A
12:30 PM55 °FSprinkles. Partly sunny.6 mph100%29.56 "HgN/A
12:00 PM55 °FSprinkles. Partly sunny.8 mph94%29.56 "HgN/A
Weather by CustomWeather, © 2014

See weather overviewHow to use our weather pages